SCP
-0 -0 0 -0 -0 -0 -0 -0 -0 -0 -0 -0 -0 -0 -0 -0 -0 -0 -0 -0 -0 -0 -0 -0 -0 -0 -0 -0 -0 -0 -0 -0 -0 -0 -0 -0 -0 -0 -0 -0 0 0 -0
0 0 0 -0 -0 -0 -0 -0 0 -0 -0 -0 -0 -0 -0 -0 -0 -0 -0 -0 -0 -0 -0 -0 -0 -0 -0 -0 -0 -0 -0 -0 -0 -0 -0 -0 -0 -0 -0 -0 -0 0 -0
-0 -0 0 -0 -0 -0 -0 -0 -0 -0 -0 -0 -0 -0 -0 -0 -0 -0 -0 -0 -0 -0 -0 -0 -0 -0 -0 -0 -0 -0 -0 -0 -0 -0 -0 0 0 -0 -0 -0 -0 -0 -0
0 -0 0 0 -0 -0 -0 -0 -0 -0 -0 -0 -0 -0 -0 -0 -0 -0 -0 -0 -0 -0 -0 -0 -0 -0 -0 -0 -0 -0 -0 -0 -0 -0 0 0 0 -0 -0 -0 -0 -0 -0
-0 0 0 -0 -0 -0 -0 -0 -0 -0 -0 -0 -0 -0 -0 -0 -0 -0 -0 -0 -0 -0 -0 -0 -0 -0 -0 -0 -0 -0 -0 -0 -0 0 0 0 0 0 0 -0 -0 0 -0
-0 -0 -0 0 -0 -0 -0 -0 -0 -0 -0 -0 -0 -0 -0 -0 -0 -0 -0 -0 -0 -0 -0 -0 -0 -0 -0 -0 -0 -0 -0 -0 -0 0 0 0 0 0 0 0 0 0 0
0 -0 -0 -0 -0 -0 -0 -0 -0 -0 -0 -0 -0 -0 -0 -0 -0 -0 -0 -0 -0 -0 -0 -0 -0 -0 -0 -0 -0 -0 -0 -0 0 0 0 0 0 0 0 0 0 0 0
0 0 0 0 0 0 0 -0 -0 -0 0 0 0 0 -0 -0 0 -0 -0 -0 -0 -0 -0 -0 -0 -0 -0 -0 -0 -0 0 0 0 0 0 0 0 0 0 0 0 0 0
0 -0 0 0 0 -0 -0 -0 -0 -0 -0 -0 0 0 0 -0 -0 -0 -0 -0 -0 -0 -0 -0 -0 -0 -0 -0 -0 -0 0 0 0 0 0 0 0 0 0 0 0 0 0
0 0 0 0 0 0 0 -0 -0 -0 -0 -0 -0 -0 -0 0 -0 -0 -0 -0 -0 -0 -0 -0 0 0 0 0 0 0 0 0 0 0 0 0 0 0 0 0 0 0 0
0 0 0 0 0 0 0 -0 -0 -0 -0 -0 -0 -0 -0 0 0 -0 -0 -0 -0 -0 0 0 0 0 0 0 0 0 0 0 0 0 0 0 0 0 0 0 0 0 0
0 -0 -0 -0 0 0 0 0 -0 -0 -0 -0 -0 -0 -0 0 0 0 0 -0 -0 -0 0 0 0 0 0 0 0 0 0 0 0 0 0 0 0 0 0 0 0 0 0
0 0 -0 -0 0 0 0 0 -0 -0 -0 -0 -0 -0 -0 -0 0 0 0 0 0 0 0 0 0 0 0 0 0 0 0 0 0 0 0 0 0 0 0 0 0 0 0
0 0 0 0 -0 -0 -0 -0 -0 -0 -0 -0 -0 -0 0 0 0 0 0 0 0 0 0 0 0 0 0 0 0 0 0 0 0 0 0 0 0 0 0 0 0 0 0
0 0 0 0 0 -0 0 -0 -0 -0 -0 -0 0 -0 -0 -0 0 0 0 0 0 0 0 0 0 0 0 0 0 0 0 0 0 0 0 0 0 0 0 0 0 0 0
0 0 0 0 -0 -0 0 0 -0 -0 0 -0 -0 -0 -0 0 0 0 0 0 0 0 0 0 0 0 0 0 0 0 0 0 0 0 0 0 0 0 0 0 0 0 0
0 0 0 0 0 0 0 -0 0 0 0 0 0 0 0 0 0 0 0 0 0 0 0 0 0 0 0 0 0 0 0 0 0 0 0 0 0 0 0 0 0 0 0
0 -0 -0 0 0 0 0 0 0 0 0 0 0 0 0 0 0 0 0 0 0 0 0 0 0 0 0 0 0 0 0 0 0 0 0 0 0 0 0 0 0 0 0
-0 -0 -0 0 0 0 0 0 0 0 0 0 0 0 0 0 0 0 0 0 0 0 0 0 0 0 0 0 0 0 0 0 0 0 0 0 0 0 0 0 0 0 0
0 0 -0 0 0 0 0 0 0 0 0 0 0 0 0 0 0 0 0 0 0 0 0 0 0 0 0 0 0 0 0 0 0 0 0 0 0 0 0 0 0 0 0
0 0 0 0 0 0 0 0 0 0 0 0 0 0 0 0 0 0 0 0 0 0 0 0 0 0 0 0 0 0 0 0 0 0 0 0 0 0 0 0 0 0 0
0 0 0 0 0 0 0 0 0 0 0 0 0 0 0 0 0 0 0 0 0 0 0 0 0 0 0 0 0 0 0 0 0 0 0 0 0 0 0 0 0 0 0
0 0 0 0 0 0 0 0 0 0 0 0 0 0 0 0 0 0 0 0 0 0 0 0 0 0 0 0 0 0 0 0 0 0 0 0 0 0 0 0 0 0 0
0 0 0 0 0 0 0 0 0 0 0 0 0 0 0 0 0 0 0 0 0 0 0 0 0 0 0 0 0 0 0 0 0 0 0 0 0 0 0 0 0 0 0
0 0 0 0 0 0 0 0 0 0 0 0 0 0 0 0 0 0 0 0 0 0 0 0 0 0 0 0 0 0 0 0 0 0 0 0 0 0 0 0 0 0 0
0 0 0 0 0 0 0 0 0 0 0 0 0 0 0 0 0 0 0 0 0 0 0 0 0 0 0 0 0 0 0 0 0 0 0 0 0 0 0 0 0 0 0
Wind_Speed_500mb
32 28 27 27 29 27 21 20 17 19 20 22 21 22 22 22 21 20 19 18 15 18 26 25 26 25 25 23 19 18 16 16 14 11 8 7 7 6 5 7 7 14 20
39 32 27 24 24 22 22 21 21 21 22 23 23 26 26 23 19 17 19 15 13 32 31 34 35 36 31 30 25 23 24 23 21 18 19 22 15 17 19 23 26 28 28
40 35 30 24 25 23 22 22 23 21 23 22 30 34 32 32 31 34 34 33 39 37 35 37 37 35 31 27 23 22 20 20 20 21 22 24 27 29 28 29 30 25 22
34 35 30 25 26 25 23 22 21 22 23 24 35 34 23 31 36 35 39 35 34 36 32 30 29 26 26 23 20 20 17 19 17 10 9 17 22 22 21 19 15 22 26
31 33 29 27 29 27 27 20 18 20 21 25 34 35 22 27 34 29 36 29 29 32 28 25 23 21 22 17 17 19 20 23 23 12 9 12 16 21 19 17 15 24 22
34 31 32 31 30 30 29 20 18 19 22 24 27 31 33 23 28 33 31 25 24 22 22 23 22 20 18 14 13 14 17 23 23 20 17 23 19 20 18 13 15 20 17
36 32 29 28 32 32 30 22 18 19 23 23 28 28 26 27 27 32 29 17 18 22 21 20 20 20 17 10 7 11 16 21 22 17 15 13 13 14 15 15 16 13 13
37 36 35 35 34 34 30 23 19 20 21 25 24 25 23 24 27 28 22 15 16 17 19 19 18 16 15 7 5 9 12 22 26 19 11 8 7 12 11 10 12 10 8
36 34 33 34 33 31 27 20 20 22 23 26 24 23 23 23 23 23 16 15 16 15 14 14 14 14 14 7 5 8 13 20 25 24 18 13 13 12 12 13 13 12 11
34 34 34 34 33 29 23 21 22 22 23 25 22 20 20 18 18 13 14 17 17 16 14 13 13 13 13 11 7 12 17 18 20 22 20 22 16 14 15 15 16 16 14
34 36 35 33 31 29 25 25 24 22 22 21 19 17 18 17 14 11 11 14 15 16 15 13 12 12 13 11 7 9 17 19 19 22 19 20 21 22 18 15 15 16 17
40 39 37 33 31 29 26 23 21 19 18 17 15 15 16 15 13 10 10 11 12 13 15 13 13 15 15 13 12 10 15 19 20 19 17 20 22 23 22 21 20 21 22
42 42 40 35 31 28 26 23 20 19 16 14 11 10 10 11 10 9 8 8 10 11 12 12 13 14 15 16 17 16 16 16 18 21 20 20 21 24 26 25 25 24 24
47 43 40 37 33 29 24 22 21 19 16 12 10 7 5 6 5 5 6 6 7 8 10 12 12 14 15 16 18 17 17 18 21 22 23 24 26 27 29 32 35 36 35
40 39 39 38 35 28 26 24 23 22 20 15 9 7 4 2 0 3 4 5 6 7 8 9 10 11 14 17 20 21 21 21 23 24 28 30 32 34 36 38 40 42 41
35 37 35 38 32 33 28 27 25 19 18 16 16 12 10 8 8 7 8 8 9 10 10 9 11 11 13 15 19 25 27 32 34 34 37 39 41 43 45 46 48 50 51
37 32 34 33 34 33 33 29 26 25 23 16 16 14 15 14 14 14 12 12 12 14 15 15 15 15 19 24 25 29 33 39 43 42 44 46 51 52 54 57 58 60 61
39 36 30 32 32 34 38 37 32 32 28 26 24 21 17 15 15 16 16 15 16 17 18 19 22 23 29 34 37 39 43 46 51 52 54 53 56 56 58 58 62 61 64
48 43 39 33 33 32 36 41 37 35 35 30 29 24 22 20 17 16 16 17 21 21 22 22 27 33 34 37 43 47 49 53 56 59 56 57 57 57 56 55 53 57 58
47 48 42 38 37 35 31 36 33 38 35 32 29 25 21 19 17 19 20 22 24 25 28 31 35 34 42 44 49 51 55 53 60 57 46 52 49 49 52 56 54 56 53
48 52 49 46 45 44 42 38 35 40 38 36 31 25 23 21 23 24 25 28 31 31 32 33 37 42 45 44 51 57 58 57 54 55 34 63 51 54 53 48 56 58 55
53 55 55 49 46 46 42 32 34 34 34 30 27 27 26 27 27 28 30 31 30 32 33 32 35 38 42 42 46 54 55 66 32 56 68 60 62 49 68 65 62 55 67
57 60 61 57 51 46 41 36 32 31 30 29 28 26 27 26 27 29 27 26 25 24 26 29 31 34 38 38 39 40 39 26 71 45 75 55 57 70 74 66 70 61 69
61 63 62 63 59 52 46 43 37 32 33 30 30 28 27 27 26 25 23 23 20 19 20 22 23 28 32 34 41 37 39 55 43 60 30 83 49 74 61 57 63 61 70
62 69 69 64 60 57 51 44 39 33 33 32 30 30 28 24 22 20 17 14 16 18 24 26 33 34 30 37 39 40 45 47 50 51 82 69 80 74 73 65 67 75 70
47 54 63 68 64 57 54 48 41 38 33 35 32 29 26 22 20 18 17 15 19 19 17 17 19 21 22 25 28 30 35 38 45 49 66 83 94 95 75 86 76 73 61
Wind_Direction_500mb
156 155 151 142 134 127 108 98 87 91 85 89 91 101 115 122 127 132 129 113 97 82 81 77 83 90 92 91 88 89 91 93 103 105 104 93 80 80 29 25 46 82 80
152 157 150 154 140 136 113 92 95 93 91 95 92 94 107 115 112 119 126 115 91 92 88 85 87 89 93 95 89 82 83 92 97 86 76 78 69 68 74 74 68 74 81
157 159 155 147 136 129 119 102 94 90 93 100 99 91 86 97 100 98 98 98 94 95 92 97 96 95 89 88 84 77 66 72 88 89 91 83 72 74 81 86 93 89 90
163 161 157 152 150 137 126 114 96 87 92 102 92 94 85 82 93 97 95 92 91 96 95 101 106 108 95 90 83 73 52 50 57 73 92 92 89 78 77 78 90 76 73
172 165 161 162 146 139 134 122 92 88 95 109 110 111 98 84 91 101 100 103 98 94 93 104 106 110 96 86 79 67 59 33 26 53 73 80 83 69 75 78 80 80 81
166 156 151 148 146 142 142 131 99 95 101 106 111 118 107 104 92 101 98 96 95 91 91 85 87 87 92 78 62 57 46 37 32 34 58 69 65 74 69 60 62 72 81
165 155 150 149 150 148 143 136 111 109 113 108 106 116 119 110 93 104 96 103 85 81 80 83 85 88 79 65 59 53 38 40 34 25 62 73 80 71 70 60 68 77 69
160 160 160 155 155 149 149 138 124 111 110 104 106 113 122 115 102 95 102 99 83 84 80 77 75 75 69 87 84 49 44 34 28 26 36 18 27 65 53 41 21 27 46
156 159 156 156 156 148 150 140 128 116 112 107 109 110 113 115 112 112 109 74 68 80 88 86 80 76 70 80 46 32 26 37 39 38 28 3 8 16 353 5 14 21 15
159 158 158 158 160 160 153 139 131 128 119 109 107 107 109 118 120 110 79 63 68 76 81 76 64 61 66 86 32 11 12 21 28 28 22 25 5 350 356 359 3 3 356
168 163 159 159 161 164 156 150 149 138 118 111 112 113 111 111 110 103 80 70 71 65 67 67 57 47 48 63 67 12 357 7 16 18 14 20 18 12 1 354 349 347 344
173 167 163 165 167 165 163 162 151 138 133 133 124 107 103 103 99 97 86 75 66 62 57 58 48 36 33 32 35 29 15 6 11 11 10 12 12 8 5 358 345 338 332
175 173 170 169 171 172 171 169 164 160 155 148 134 120 110 97 88 80 76 64 57 48 40 36 30 27 27 31 32 28 20 11 7 8 5 1 360 355 352 347 342 335 327
183 183 175 177 174 169 175 177 179 173 170 169 165 148 131 94 84 64 49 40 26 26 20 16 13 7 9 17 21 18 10 3 358 354 349 342 337 335 333 330 329 327 325
190 196 191 187 184 182 184 190 192 188 183 184 187 193 201 206 249 328 339 346 336 345 352 358 1 358 357 359 355 348 346 341 336 330 324 320 320 318 317 316 314 313 309
201 203 204 197 195 191 198 197 205 200 202 199 202 211 225 237 259 273 285 294 304 316 318 321 334 343 347 335 334 330 328 326 316 311 311 312 311 312 311 308 306 303 301
204 206 206 200 204 209 204 202 195 201 201 216 220 225 226 239 246 257 272 284 295 300 303 302 303 311 329 325 322 321 314 311 307 308 306 307 307 306 306 305 302 300 297
215 212 213 208 207 215 213 220 206 209 213 211 220 232 240 248 249 254 264 271 278 287 296 302 304 312 311 310 307 304 304 303 303 306 302 302 307 303 301 301 301 300 298
224 222 218 221 221 219 219 228 232 215 213 222 228 235 235 245 258 274 275 277 285 298 311 309 301 305 306 305 306 302 308 306 307 305 307 305 305 305 300 302 301 300 298
223 224 228 229 229 228 228 225 231 218 222 228 233 236 239 249 259 274 285 290 293 295 299 298 299 299 304 306 305 305 307 302 305 311 304 303 310 309 307 305 303 304 300
215 218 225 229 228 227 224 226 234 218 222 227 234 236 239 254 265 268 271 283 290 291 291 291 295 300 300 306 309 307 305 307 310 309 308 309 306 311 306 299 308 300 298
209 214 221 230 229 226 231 240 247 232 223 228 233 242 250 253 261 268 272 275 276 278 281 286 292 295 298 305 313 314 317 310 313 303 311 313 312 304 318 308 310 301 304
213 218 219 223 224 227 229 228 230 218 223 230 238 246 253 253 257 256 262 265 267 276 284 287 289 293 297 299 300 313 317 309 316 317 309 312 315 306 310 312 309 305 306
213 215 218 221 220 219 217 222 228 222 221 227 232 236 237 244 246 253 255 260 260 261 269 279 279 294 292 296 300 300 304 312 312 316 301 308 310 307 310 309 308 302 308
220 221 221 223 221 213 210 220 224 226 215 217 218 223 228 233 236 242 254 259 257 264 273 275 279 293 286 289 298 300 299 300 300 307 310 310 308 309 309 310 308 314 314
223 223 222 222 220 212 206 212 215 218 211 208 209 208 207 207 213 228 236 252 262 267 277 286 296 304 307 305 305 307 308 314 308 309 304 307 311 315 310 311 315 317 314
Wind_Speed_850mb
32 28 27 27 29 27 21 20 17 19 20 22 21 22 22 22 21 20 19 18 15 18 26 25 26 25 25 23 19 18 16 16 14 11 8 7 7 6 5 7 7 14 20
39 32 27 24 24 22 22 21 21 21 22 23 23 26 26 23 19 17 19 15 13 32 31 34 35 36 31 30 25 23 24 23 21 18 19 22 15 17 19 23 26 28 28
40 35 30 24 25 23 22 22 23 21 23 22 30 34 32 32 31 34 34 33 39 37 35 37 37 35 31 27 23 22 20 20 20 21 22 24 27 29 28 29 30 25 22
34 35 30 25 26 25 23 22 21 22 23 24 35 34 23 31 36 35 39 35 34 36 32 30 29 26 26 23 20 20 17 19 17 10 9 17 22 22 21 19 15 22 26
31 33 29 27 29 27 27 20 18 20 21 25 34 35 22 27 34 29 36 29 29 32 28 25 23 21 22 17 17 19 20 23 23 12 9 12 16 21 19 17 15 24 22
34 31 32 31 30 30 29 20 18 19 22 24 27 31 33 23 28 33 31 25 24 22 22 23 22 20 18 14 13 14 17 23 23 20 17 23 19 20 18 13 15 20 17
36 32 29 28 32 32 30 22 18 19 23 23 28 28 26 27 27 32 29 17 18 22 21 20 20 20 17 10 7 11 16 21 22 17 15 13 13 14 15 15 16 13 13
37 36 35 35 34 34 30 23 19 20 21 25 24 25 23 24 27 28 22 15 16 17 19 19 18 16 15 7 5 9 12 22 26 19 11 8 7 12 11 10 12 10 8
36 34 33 34 33 31 27 20 20 22 23 26 24 23 23 23 23 23 16 15 16 15 14 14 14 14 14 7 5 8 13 20 25 24 18 13 13 12 12 13 13 12 11
34 34 34 34 33 29 23 21 22 22 23 25 22 20 20 18 18 13 14 17 17 16 14 13 13 13 13 11 7 12 17 18 20 22 20 22 16 14 15 15 16 16 14
34 36 35 33 31 29 25 25 24 22 22 21 19 17 18 17 14 11 11 14 15 16 15 13 12 12 13 11 7 9 17 19 19 22 19 20 21 22 18 15 15 16 17
40 39 37 33 31 29 26 23 21 19 18 17 15 15 16 15 13 10 10 11 12 13 15 13 13 15 15 13 12 10 15 19 20 19 17 20 22 23 22 21 20 21 22
42 42 40 35 31 28 26 23 20 19 16 14 11 10 10 11 10 9 8 8 10 11 12 12 13 14 15 16 17 16 16 16 18 21 20 20 21 24 26 25 25 24 24
47 43 40 37 33 29 24 22 21 19 16 12 10 7 5 6 5 5 6 6 7 8 10 12 12 14 15 16 18 17 17 18 21 22 23 24 26 27 29 32 35 36 35
40 39 39 38 35 28 26 24 23 22 20 15 9 7 4 2 0 3 4 5 6 7 8 9 10 11 14 17 20 21 21 21 23 24 28 30 32 34 36 38 40 42 41
35 37 35 38 32 33 28 27 25 19 18 16 16 12 10 8 8 7 8 8 9 10 10 9 11 11 13 15 19 25 27 32 34 34 37 39 41 43 45 46 48 50 51
37 32 34 33 34 33 33 29 26 25 23 16 16 14 15 14 14 14 12 12 12 14 15 15 15 15 19 24 25 29 33 39 43 42 44 46 51 52 54 57 58 60 61
39 36 30 32 32 34 38 37 32 32 28 26 24 21 17 15 15 16 16 15 16 17 18 19 22 23 29 34 37 39 43 46 51 52 54 53 56 56 58 58 62 61 64
48 43 39 33 33 32 36 41 37 35 35 30 29 24 22 20 17 16 16 17 21 21 22 22 27 33 34 37 43 47 49 53 56 59 56 57 57 57 56 55 53 57 58
47 48 42 38 37 35 31 36 33 38 35 32 29 25 21 19 17 19 20 22 24 25 28 31 35 34 42 44 49 51 55 53 60 57 46 52 49 49 52 56 54 56 53
48 52 49 46 45 44 42 38 35 40 38 36 31 25 23 21 23 24 25 28 31 31 32 33 37 42 45 44 51 57 58 57 54 55 34 63 51 54 53 48 56 58 55
53 55 55 49 46 46 42 32 34 34 34 30 27 27 26 27 27 28 30 31 30 32 33 32 35 38 42 42 46 54 55 66 32 56 68 60 62 49 68 65 62 55 67
57 60 61 57 51 46 41 36 32 31 30 29 28 26 27 26 27 29 27 26 25 24 26 29 31 34 38 38 39 40 39 26 71 45 75 55 57 70 74 66 70 61 69
61 63 62 63 59 52 46 43 37 32 33 30 30 28 27 27 26 25 23 23 20 19 20 22 23 28 32 34 41 37 39 55 43 60 30 83 49 74 61 57 63 61 70
62 69 69 64 60 57 51 44 39 33 33 32 30 30 28 24 22 20 17 14 16 18 24 26 33 34 30 37 39 40 45 47 50 51 82 69 80 74 73 65 67 75 70
47 54 63 68 64 57 54 48 41 38 33 35 32 29 26 22 20 18 17 15 19 19 17 17 19 21 22 25 28 30 35 38 45 49 66 83 94 95 75 86 76 73 61
Wind_Direction_850mb
156 155 151 142 134 127 108 98 87 91 85 89 91 101 115 122 127 132 129 113 97 82 81 77 83 90 92 91 88 89 91 93 103 105 104 93 80 80 29 25 46 82 80
152 157 150 154 140 136 113 92 95 93 91 95 92 94 107 115 112 119 126 115 91 92 88 85 87 89 93 95 89 82 83 92 97 86 76 78 69 68 74 74 68 74 81
157 159 155 147 136 129 119 102 94 90 93 100 99 91 86 97 100 98 98 98 94 95 92 97 96 95 89 88 84 77 66 72 88 89 91 83 72 74 81 86 93 89 90
163 161 157 152 150 137 126 114 96 87 92 102 92 94 85 82 93 97 95 92 91 96 95 101 106 108 95 90 83 73 52 50 57 73 92 92 89 78 77 78 90 76 73
172 165 161 162 146 139 134 122 92 88 95 109 110 111 98 84 91 101 100 103 98 94 93 104 106 110 96 86 79 67 59 33 26 53 73 80 83 69 75 78 80 80 81
166 156 151 148 146 142 142 131 99 95 101 106 111 118 107 104 92 101 98 96 95 91 91 85 87 87 92 78 62 57 46 37 32 34 58 69 65 74 69 60 62 72 81
165 155 150 149 150 148 143 136 111 109 113 108 106 116 119 110 93 104 96 103 85 81 80 83 85 88 79 65 59 53 38 40 34 25 62 73 80 71 70 60 68 77 69
160 160 160 155 155 149 149 138 124 111 110 104 106 113 122 115 102 95 102 99 83 84 80 77 75 75 69 87 84 49 44 34 28 26 36 18 27 65 53 41 21 27 46
156 159 156 156 156 148 150 140 128 116 112 107 109 110 113 115 112 112 109 74 68 80 88 86 80 76 70 80 46 32 26 37 39 38 28 3 8 16 353 5 14 21 15
159 158 158 158 160 160 153 139 131 128 119 109 107 107 109 118 120 110 79 63 68 76 81 76 64 61 66 86 32 11 12 21 28 28 22 25 5 350 356 359 3 3 356
168 163 159 159 161 164 156 150 149 138 118 111 112 113 111 111 110 103 80 70 71 65 67 67 57 47 48 63 67 12 357 7 16 18 14 20 18 12 1 354 349 347 344
173 167 163 165 167 165 163 162 151 138 133 133 124 107 103 103 99 97 86 75 66 62 57 58 48 36 33 32 35 29 15 6 11 11 10 12 12 8 5 358 345 338 332
175 173 170 169 171 172 171 169 164 160 155 148 134 120 110 97 88 80 76 64 57 48 40 36 30 27 27 31 32 28 20 11 7 8 5 1 360 355 352 347 342 335 327
183 183 175 177 174 169 175 177 179 173 170 169 165 148 131 94 84 64 49 40 26 26 20 16 13 7 9 17 21 18 10 3 358 354 349 342 337 335 333 330 329 327 325
190 196 191 187 184 182 184 190 192 188 183 184 187 193 201 206 249 328 339 346 336 345 352 358 1 358 357 359 355 348 346 341 336 330 324 320 320 318 317 316 314 313 309
201 203 204 197 195 191 198 197 205 200 202 199 202 211 225 237 259 273 285 294 304 316 318 321 334 343 347 335 334 330 328 326 316 311 311 312 311 312 311 308 306 303 301
204 206 206 200 204 209 204 202 195 201 201 216 220 225 226 239 246 257 272 284 295 300 303 302 303 311 329 325 322 321 314 311 307 308 306 307 307 306 306 305 302 300 297
215 212 213 208 207 215 213 220 206 209 213 211 220 232 240 248 249 254 264 271 278 287 296 302 304 312 311 310 307 304 304 303 303 306 302 302 307 303 301 301 301 300 298
224 222 218 221 221 219 219 228 232 215 213 222 228 235 235 245 258 274 275 277 285 298 311 309 301 305 306 305 306 302 308 306 307 305 307 305 305 305 300 302 301 300 298
223 224 228 229 229 228 228 225 231 218 222 228 233 236 239 249 259 274 285 290 293 295 299 298 299 299 304 306 305 305 307 302 305 311 304 303 310 309 307 305 303 304 300
215 218 225 229 228 227 224 226 234 218 222 227 234 236 239 254 265 268 271 283 290 291 291 291 295 300 300 306 309 307 305 307 310 309 308 309 306 311 306 299 308 300 298
209 214 221 230 229 226 231 240 247 232 223 228 233 242 250 253 261 268 272 275 276 278 281 286 292 295 298 305 313 314 317 310 313 303 311 313 312 304 318 308 310 301 304
213 218 219 223 224 227 229 228 230 218 223 230 238 246 253 253 257 256 262 265 267 276 284 287 289 293 297 299 300 313 317 309 316 317 309 312 315 306 310 312 309 305 306
213 215 218 221 220 219 217 222 228 222 221 227 232 236 237 244 246 253 255 260 260 261 269 279 279 294 292 296 300 300 304 312 312 316 301 308 310 307 310 309 308 302 308
220 221 221 223 221 213 210 220 224 226 215 217 218 223 228 233 236 242 254 259 257 264 273 275 279 293 286 289 298 300 299 300 300 307 310 310 308 309 309 310 308 314 314
223 223 222 222 220 212 206 212 215 218 211 208 209 208 207 207 213 228 236 252 262 267 277 286 296 304 307 305 305 307 308 314 308 309 304 307 311 315 310 311 315 317 314